ROMMA est une association bénévole à but non lucratif. Votre soutien est indispensable : ADHERER à ROMMA ou FAIRE un DON

Val-d'Arly - (73, Savoie)

Beaufortain (2050 m)   Longitude: 06° 35' 21" E   Latitude: 45° 46' 53" N Station romma n°118
 

Détail journalier du     <<     >>

Température Humidité Vent Dir Rafale Dir. rafale Ensol.
Heure (°C) (%) (km/h) (km/h) (min)
01:00 -3.4596---16---0
02:00 -3.35512---21---0
03:00 -3.15412---24---0
04:00 -3.7616---15---0
05:00 -4.47111---19---0
06:00 -4.77512---27---0
07:00 -4.36917---27---0
08:00 -5.2808---15---0
09:00 -5.4846---13---0
10:00 -5.6867---13---0
11:00 -5.6921---6---0
12:00 -5.9923---8---0
13:00 -5.8926---10---30
14:00 -5.5937---15---60
15:00 -5.7936---13---60
16:00 -5.99310---16---0
17:00 -6.0937---15---0
18:00 -5.9938---13---0
19:00 -5.9937---10---0
20:00 -5.9939---15---0
21:00 -5.99312---18---0
22:00 -6.0936---15---0
23:00 -6.1935---13---0
minuit -6.3935---10---0

Graphique du 17-11-2019

 

Serveur OMMA